312  
SXUS52 KTAE 272316  
OSOTAE  
OSOTAE  
NORTH FLORIDA/SOUTH ALABAMA/SOUTHWEST GEORGIA WEATHER ROUNDUP  
NATIONAL WEATHER SERVICE TALLAHASSEE FLORIDA  
700 PM EDT WED OCT 27 2021  
 
NOTE: "FAIR" INDICATES FEW OR NO CLOUDS BELOW 12,000 FEET WITH NO  
SIGNIFICANT WEATHER AND/OR OBSTRUCTIONS TO VISIBILITY.  
 
!FLZ017-115-028-034-025-280000   
..NORTH FLORIDA
 
 
 
CITY SKY/WX TMP DP RH WIND PRES REMARKS  
TALL INTL ARPT PTCLDY 70 58 65 SE5 29.82S  
FSU LOVE BLDG N/A 72 57 60 SE5 N/A  
APALACHICOLA CLEAR 71 67 87 E5 29.81S  
PERRY NOT AVBL  
CROSS CITY CLEAR 69 61 74 CALM 29.85R  
JACKSONVILLE PTCLDY 66 61 84 E6 29.85R  

 
 
!FLZ112-006-005-002-011-280000   
..FLORIDA PANHANDLE
 
 
 
CITY SKY/WX TMP DP RH WIND PRES REMARKS  
MARIANNA CLEAR 73 51 46 E3 29.78F  
BONIFAY FAIR 67 58 72 CALM 29.80S  
PANAMA CITY NW FAIR 68 60 75 SE5 29.78S  
TYNDALL AFB CLEAR 72 63 72 S8 29.79S  
TYND DRONE APT FAIR 73 63 72 S8 29.78R  
DE FUNIAK SPR NOT AVBL  
EGLIN AFB PTCLDY 72 63 74 SE13 29.75F  
DESTIN PTCLDY 74 66 76 SE10 29.76F  
HURLBURT PTCLDY 72 65 80 E8 29.74F  
CRESTVIEW NOT AVBL  
PENSACOLA MOCLDY 74 67 78 E13 29.72F  

 
 
!ALZ063-066-280000   
..SOUTH ALABAMA
 
 
 
CITY SKY/WX TMP DP RH WIND PRES REMARKS  
DOTHAN CLEAR 70 47 43 E6 29.82F  
OZARK CAIRNS CLEAR 69 52 54 E3 29.78F  
FT RUCKER HELI CLEAR 68 54 60 CALM 29.78S  
RUCKER HELI 3 FAIR 69 53 55 S5 29.78S  
RUCKER HELI 2 FAIR 68 52 56 SE3 29.77F  
FLORALA APT PTCLDY 70 53 54 E5 29.79S  
ANDALUSIA PTCLDY 72 54 53 SE5 29.77S  
TROY PTCLDY 66 54 65 SE3 29.79R  
EUFALA FAIR 64 57 78 CALM 29.80F  
MOBILE CLOUDY 73 67 81 E13G23 29.68F  

 
 
!GAZ120>161-280000   
..SOUTHWEST AND SOUTH CENTRAL GEORGIA
 
 
 
CITY SKY/WX TMP DP RH WIND PRES REMARKS  
THOMASVILLE FAIR 64 55 72 CALM 29.84S  
BAINBRIDGE NOT AVBL  
MOODY AFB CLEAR 66 54 65 CALM 29.82S  
VALDOSTA CLEAR 65 57 75 CALM 29.84R  
MOULTRIE CLEAR 64 55 72 CALM 29.83F  
BLAKELY CLEAR 63 55 77 CALM 29.81S  
ALBANY PTCLDY 71 53 52 SE3 29.83F  
TIFTON FAIR 64 57 77 CALM 29.83  
FITZGERALD FAIR 64 58 79 CALM 29.85S  
CORDELE FAIR 66 53 64 CALM 29.84F  
AMERICUS N/A 68 55 64 CALM 29.85S  
HOMERVILLE FAIR 67 59 75 CALM 29.85R  

 
 
!GMZ750-755-770-775-280000   
..COASTAL AND BUOY OBS
 
 
 
STATION/POSITION TIME TEMP WIND PRES VSBY WAVE  
AIR SEA DIR/SP/G HT/PER  
(UTC) (F) (DEG/KT/KT) (MB) (MI) (FT/S)  
KEATON BEACH NOT AVBL  
CEDAR KEY 2300 71 210/ 3/ 3 1011.2R  
C TOWER 2300 75 150/ 11/ 12 1009.5F  
APALACHICOLA BUO 2250 79 81 170/ 6/ 8 1008.8S 1/ 5  
PANAMA CITY BUOY 2250 80 81 150/ 14/ 16 1008.4F 2/ 3  
MOBILE BUOY 2250 80 80 140/ 21/ 27 1004.3F 5/ 5  
ORANGE BCH AL BU 2250 78 79 130/ 17/ 23 N/A 3/ 4  

 
 
 
CLICK HERE TO GO TO PREVIOUS BULLETINS.

The Nexlab FL Page
The Nexlab GA Page
The Nexlab AL Page Main Text Page